datetime,inflow
1974-05-01,283.0
1974-05-02,303.0
1974-05-03,362.0
1974-05-04,423.0
1974-05-05,391.0
1974-05-06,427.0
1974-05-07,544.0
1974-05-08,591.0
1974-05-09,674.0
1974-05-10,863.0
1974-05-11,890.0
1974-05-12,809.0
1974-05-13,809.0
1974-05-14,784.0
1974-05-15,598.0
1974-05-16,497.0
1974-05-17,609.0
1974-05-18,774.0
1974-05-19,771.0
1974-05-20,899.0
1974-05-21,773.0
1974-05-22,585.0
1974-05-23,526.0
1974-05-24,509.0
1974-05-25,533.0
1974-05-26,568.0
1974-05-27,688.0
1974-05-28,880.0
1974-05-29,877.0
1974-05-30,1024.0
1974-05-31,1079.0
1974-06-01,960.0
1974-06-02,870.0
1974-06-03,796.0
1974-06-04,814.0
1974-06-05,712.0
1974-06-06,832.0
1974-06-07,868.0
1974-06-08,693.0
1974-06-09,588.0
1974-06-10,510.0
1974-06-11,490.0
1974-06-12,514.0
1974-06-13,577.0
1974-06-14,632.0
1974-06-15,668.0
1974-06-16,770.0
1974-06-17,791.0
1974-06-18,787.0
1974-06-19,777.0
1974-06-20,801.0
1974-06-21,751.0
1974-06-22,734.0
1974-06-23,708.0
1974-06-24,642.0
1974-06-25,586.0
1974-06-26,540.0
1974-06-27,509.0
1974-06-28,481.0
1974-06-29,385.0
1974-06-30,370.0
1974-07-01,336.0
1974-07-02,285.0
1974-07-03,264.0
1974-07-04,247.0
1974-07-05,267.0
1974-07-06,247.0
1974-07-07,234.0
1974-07-08,223.0
1974-07-09,228.0
1974-07-10,217.0
1974-07-11,205.0
1974-07-12,171.0
1974-07-13,173.0
1974-07-14,182.0
1974-07-15,188.0
1974-07-16,190.0
1974-07-17,201.0
1974-07-18,234.0
1974-07-19,199.0
1974-07-20,167.0
1974-07-21,191.0
1974-07-22,224.0
1974-07-23,241.0
1974-07-24,189.0
1974-07-25,164.0
1974-07-26,171.0
1974-07-27,154.0
1974-07-28,159.0
1974-07-29,174.0
1974-07-30,166.0
1974-07-31,137.0
1974-08-01,128.0
1974-08-02,120.0
1974-08-03,115.0
1974-08-04,150.0
1974-08-05,120.0
1974-08-06,124.0
1974-08-07,114.0
1974-08-08,112.0
1974-08-09,115.0
1974-08-10,155.0
1974-08-11,164.0
1974-08-12,132.0
1974-08-13,101.0
1974-08-14,104.0
1974-08-15,89.0
1974-08-16,92.0
1974-08-17,94.0
1974-08-18,65.0
1974-08-19,65.0
1974-08-20,69.0
1974-08-21,72.0
1974-08-22,64.0
1974-08-23,65.0
1974-08-24,70.0
1974-08-25,59.0
1974-08-26,59.0
1974-08-27,45.0
1974-08-28,61.0
1974-08-29,47.0
1974-08-30,42.0
1974-08-31,37.0
1974-09-01,37.0
1974-09-02,42.0
1974-09-03,38.0
1974-09-04,39.0
1974-09-05,38.0
1974-09-06,43.0
1974-09-07,38.0
1974-09-08,28.0
1974-09-09,38.0
1974-09-10,38.0
1974-09-11,38.0
1974-09-12,43.0
1974-09-13,43.0
1974-09-14,47.0
1974-09-15,42.0
1974-09-16,62.0
1974-09-17,57.0
1974-09-18,48.0
1974-09-19,47.0
1974-09-20,42.0
1974-09-21,32.0
1974-09-22,38.0
1974-09-23,42.0
1974-09-24,38.0
1974-09-25,28.0
1974-09-26,38.0
1974-09-27,33.0
1974-09-28,38.0
1974-09-29,38.0
1974-09-30,38.0
1974-10-01,34.0
1974-10-02,29.0
1974-10-03,34.0
1974-10-04,34.0
1974-10-05,47.0
1974-10-06,52.0
1974-10-07,62.0
1974-10-08,47.0
1974-10-09,48.0
1974-10-10,38.0
1974-10-11,49.0
1974-10-12,39.0
1974-10-13,49.0
1974-10-14,49.0
1974-10-15,40.0
1974-10-16,30.0
1974-10-17,30.0
1974-10-18,35.0
1974-10-19,35.0
1974-10-20,35.0
1974-10-21,35.0
1974-10-22,35.0
1974-10-23,40.0
1974-10-24,35.0
1974-10-25,35.0
1974-10-26,49.0
1974-10-27,40.0
1974-10-28,44.0
1974-10-29,40.0
1974-10-30,31.0
1974-10-31,53.0
1974-11-01,36.0
1974-11-02,38.0
1974-11-03,48.0
1974-11-04,29.0
1974-11-05,34.0
1974-11-06,34.0
1974-11-07,21.0
1974-11-08,30.0
1974-11-09,25.0
1974-11-10,44.0
1974-11-11,39.0
1974-11-12,35.0
1974-11-13,30.0
1974-11-14,44.0
1974-11-15,30.0
1974-11-16,34.0
1974-11-17,26.0
1974-11-18,26.0
1974-11-19,30.0
1974-11-20,26.0
1974-11-21,22.0
1974-11-22,23.0
1974-11-23,22.0
1974-11-24,41.0
1974-11-25,27.0
1974-11-26,14.0
1974-11-27,19.0
1974-11-28,15.0
1974-11-29,15.0
1974-11-30,6.0
1974-12-01,5.0
1974-12-02,15.0
1974-12-03,31.0
1974-12-04,16.0
1974-12-05,16.0
1974-12-06,21.0
1974-12-07,16.0
1974-12-08,12.0
1974-12-09,17.0
1974-12-10,13.0
1974-12-11,14.0
1974-12-12,10.0
1974-12-13,23.0
1974-12-14,15.0
1974-12-15,15.0
1974-12-16,33.0
1974-12-17,12.0
1974-12-18,17.0
1974-12-19,25.0
1974-12-20,29.0
1974-12-21,21.0
1974-12-22,21.0
1974-12-23,26.0
1974-12-24,26.0
1974-12-25,18.0
1974-12-26,18.0
1974-12-27,17.0
1974-12-28,16.0
1974-12-29,17.0
1974-12-30,20.0
1974-12-31,17.0
1975-01-01,14.0
1975-01-02,14.0
1975-01-03,19.0
1975-01-04,23.0
1975-01-05,15.0
1975-01-06,15.0
1975-01-07,28.0
1975-01-08,28.0
1975-01-09,28.0
1975-01-10,21.0
1975-01-11,25.0
1975-01-12,22.0
1975-01-13,10.0
1975-01-14,31.0
1975-01-15,15.0
1975-01-16,19.0
1975-01-17,23.0
1975-01-18,17.0
1975-01-19,17.0
1975-01-20,21.0
1975-01-21,22.0
1975-01-22,19.0
1975-01-23,24.0
1975-01-24,33.0
1975-01-25,33.0
1975-01-26,40.0
1975-01-27,25.0
1975-01-28,37.0
1975-01-29,37.0
1975-01-30,29.0
1975-01-31,30.0
1975-02-01,33.0
1975-02-02,22.0
1975-02-03,30.0
1975-02-04,30.0
1975-02-05,30.0
1975-02-06,34.0
1975-02-07,27.0
1975-02-08,31.0
1975-02-09,30.0
1975-02-10,31.0
1975-02-11,46.0
1975-02-12,27.0
1975-02-13,30.0
1975-02-14,32.0
1975-02-15,34.0
1975-02-16,34.0
1975-02-17,27.0
1975-02-18,23.0
1975-02-19,30.0
1975-02-20,24.0
1975-02-21,45.0
1975-02-22,27.0
1975-02-23,24.0
1975-02-24,24.0
1975-02-25,35.0
1975-02-26,28.0
1975-02-27,32.0
1975-02-28,28.0
1975-03-01,24.0
1975-03-02,24.0
1975-03-03,32.0
1975-03-04,29.0
1975-03-05,25.0
1975-03-06,26.0
1975-03-07,37.0
1975-03-08,25.0
1975-03-09,29.0
1975-03-10,30.0
1975-03-11,40.0
1975-03-12,19.0
1975-03-13,30.0
1975-03-14,24.0
1975-03-15,27.0
1975-03-16,28.0
1975-03-17,21.0
1975-03-18,30.0
1975-03-19,59.0
1975-03-20,27.0
1975-03-21,37.0
1975-03-22,57.0
1975-03-23,44.0
1975-03-24,37.0
1975-03-25,24.0
1975-03-26,27.0
1975-03-27,42.0
1975-03-28,28.0
1975-03-29,25.0
1975-03-30,32.0
1975-03-31,29.0
1975-04-01,26.0
1975-04-02,39.0
1975-04-03,26.0
1975-04-04,29.0
1975-04-05,32.0
1975-04-06,34.0
1975-04-07,39.0
1975-04-08,42.0
1975-04-09,32.0
1975-04-10,39.0
1975-04-11,32.0
1975-04-12,35.0
1975-04-13,32.0
1975-04-14,39.0
1975-04-15,33.0
1975-04-16,42.0
1975-04-17,49.0
1975-04-18,55.0
1975-04-19,66.0
1975-04-20,56.0
1975-04-21,55.0
1975-04-22,59.0
1975-04-23,79.0
1975-04-24,89.0
1975-04-25,116.0
1975-04-26,141.0
1975-04-27,182.0
1975-04-28,185.0
1975-04-29,132.0
1975-04-30,98.0
1975-05-01,85.0
1975-05-02,74.0
1975-05-03,81.0
1975-05-04,101.0
1975-05-05,101.0
1975-05-06,115.0
1975-05-07,98.0
1975-05-08,88.0
1975-05-09,81.0
1975-05-10,85.0
1975-05-11,108.0
1975-05-12,178.0
1975-05-13,225.0
1975-05-14,167.0
1975-05-15,227.0
1975-05-16,343.0
1975-05-17,399.0
1975-05-18,483.0
1975-05-19,517.0
1975-05-20,496.0
1975-05-21,587.0
1975-05-22,718.0
1975-05-23,756.0
1975-05-24,549.0
1975-05-25,446.0
1975-05-26,514.0
1975-05-27,575.0
1975-05-28,610.0
1975-05-29,607.0
1975-05-30,453.0
1975-05-31,396.0
1975-06-01,391.0
1975-06-02,380.0
1975-06-03,448.0
1975-06-04,573.0
1975-06-05,710.0
1975-06-06,810.0
1975-06-07,959.0
1975-06-08,962.0
1975-06-09,1035.0
1975-06-10,913.0
1975-06-11,708.0
1975-06-12,586.0
1975-06-13,535.0
1975-06-14,573.0
1975-06-15,823.0
1975-06-16,988.0
1975-06-17,1085.0
1975-06-18,892.0
1975-06-19,815.0
1975-06-20,737.0
1975-06-21,677.0
1975-06-22,665.0
1975-06-23,633.0
1975-06-24,676.0
1975-06-25,763.0
1975-06-26,901.0
1975-06-27,790.0
1975-06-28,777.0
1975-06-29,800.0
1975-06-30,780.0
1975-07-01,868.0
1975-07-02,794.0
1975-07-03,782.0
1975-07-04,768.0
1975-07-05,797.0
1975-07-06,943.0
1975-07-07,829.0
1975-07-08,733.0
1975-07-09,714.0
1975-07-10,573.0
1975-07-11,570.0
1975-07-12,515.0
1975-07-13,456.0
1975-07-14,416.0
1975-07-15,398.0
1975-07-16,369.0
1975-07-17,384.0
1975-07-18,435.0
1975-07-19,349.0
1975-07-20,299.0
1975-07-21,316.0
1975-07-22,316.0
1975-07-23,295.0
1975-07-24,249.0
1975-07-25,236.0
1975-07-26,204.0
1975-07-27,201.0
1975-07-28,191.0
1975-07-29,186.0
1975-07-30,195.0
1975-07-31,203.0
1975-08-01,197.0
1975-08-02,191.0
1975-08-03,145.0
1975-08-04,135.0
1975-08-05,136.0
1975-08-06,124.0
1975-08-07,139.0
1975-08-08,138.0
1975-08-09,142.0
1975-08-10,113.0
1975-08-11,108.0
1975-08-12,110.0
1975-08-13,145.0
1975-08-14,154.0
1975-08-15,154.0
1975-08-16,120.0
1975-08-17,105.0
1975-08-18,105.0
1975-08-19,101.0
1975-08-20,96.0
1975-08-21,102.0
1975-08-22,111.0
1975-08-23,102.0
1975-08-24,96.0
1975-08-25,67.0
1975-08-26,72.0
1975-08-27,63.0
1975-08-28,63.0
1975-08-29,72.0
1975-08-30,63.0
1975-08-31,58.0
1975-09-01,58.0
1975-09-02,54.0
1975-09-03,70.0
1975-09-04,57.0
1975-09-05,57.0
1975-09-06,58.0
1975-09-07,48.0
1975-09-08,53.0
1975-09-09,55.0
1975-09-10,70.0
1975-09-11,86.0
1975-09-12,80.0
1975-09-13,99.0
1975-09-14,104.0
1975-09-15,124.0
1975-09-16,136.0
1975-09-17,101.0
1975-09-18,111.0
1975-09-19,87.0
1975-09-20,73.0
1975-09-21,63.0
1975-09-22,68.0
1975-09-23,5.0
1975-09-24,63.0
1975-09-25,64.0
1975-09-26,68.0
1975-09-27,54.0
1975-09-28,54.0
1975-09-29,49.0
1975-09-30,49.0
1975-10-01,60.0
1975-10-02,51.0
1975-10-03,60.0
1975-10-04,55.0
1975-10-05,46.0
1975-10-06,60.0
1975-10-07,46.0
1975-10-08,65.0
1975-10-09,60.0
1975-10-10,46.0
1975-10-11,55.0
1975-10-12,66.0
1975-10-13,56.0
1975-10-14,55.0
1975-10-15,50.0
1975-10-16,54.0
1975-10-17,49.0
1975-10-18,50.0
1975-10-19,49.0
1975-10-20,53.0
1975-10-21,40.0
1975-10-22,45.0
1975-10-23,49.0
1975-10-24,68.0
1975-10-25,31.0
1975-10-26,45.0
1975-10-27,58.0
1975-10-28,58.0
1975-10-29,45.0
1975-10-30,50.0
1975-10-31,45.0
1975-11-01,73.0
1975-11-02,55.0
1975-11-03,45.0
1975-11-04,45.0
1975-11-05,50.0
1975-11-06,41.0
1975-11-07,50.0
1975-11-08,46.0
1975-11-09,74.0
1975-11-10,46.0
1975-11-11,32.0
1975-11-12,41.0
1975-11-13,36.0
1975-11-14,43.0
1975-11-15,35.0
1975-11-16,48.0
1975-11-17,44.0
1975-11-18,49.0
1975-11-19,35.0
1975-11-20,39.0
1975-11-21,31.0
1975-11-22,31.0
1975-11-23,17.0
1975-11-24,22.0
1975-11-25,31.0
1975-11-26,59.0
1975-11-27,28.0
1975-11-28,55.0
1975-11-29,50.0
1975-11-30,41.0
1975-12-01,32.0
1975-12-02,16.0
1975-12-03,33.0
1975-12-04,42.0
1975-12-05,24.0
1975-12-06,24.0
1975-12-07,24.0
1975-12-08,25.0
1975-12-09,30.0
1975-12-10,37.0
1975-12-11,24.0
1975-12-12,24.0
1975-12-13,19.0
1975-12-14,29.0
1975-12-15,29.0
1975-12-16,16.0
1975-12-17,25.0
1975-12-18,26.0
1975-12-19,15.0
1975-12-20,15.0
1975-12-21,22.0
1975-12-22,22.0
1975-12-23,19.0
1975-12-24,27.0
1975-12-25,23.0
1975-12-26,23.0
1975-12-27,24.0
1975-12-28,24.0
1975-12-29,20.0
1975-12-30,20.0
1975-12-31,19.0
1976-01-01,19.0
1976-01-02,24.0
1976-01-03,12.0
1976-01-04,16.0
1976-01-05,16.0
1976-01-06,29.0
1976-01-07,33.0
1976-01-08,18.0
1976-01-09,21.0
1976-01-10,33.0
1976-01-11,23.0
1976-01-12,19.0
1976-01-13,34.0
1976-01-14,24.0
1976-01-15,19.0
1976-01-16,24.0
1976-01-17,24.0
1976-01-18,25.0
1976-01-19,20.0
1976-01-20,13.0
1976-01-21,17.0
1976-01-22,25.0
1976-01-23,22.0
1976-01-24,19.0
1976-01-25,26.0
1976-01-26,20.0
1976-01-27,23.0
1976-01-28,23.0
1976-01-29,21.0
1976-01-30,24.0
1976-01-31,13.0
1976-02-01,22.0
1976-02-02,22.0
1976-02-03,22.0
1976-02-04,22.0
1976-02-05,23.0
1976-02-06,38.0
1976-02-07,35.0
1976-02-08,20.0
1976-02-09,20.0
1976-02-10,55.0
1976-02-11,25.0
1976-02-12,29.0
1976-02-13,23.0
1976-02-14,22.0
1976-02-15,34.0
1976-02-16,41.0
1976-02-17,27.0
1976-02-18,23.0
1976-02-19,28.0
1976-02-20,28.0
1976-02-21,46.0
1976-02-22,21.0
1976-02-23,25.0
1976-02-24,21.0
1976-02-25,26.0
1976-02-26,26.0
1976-02-27,17.0
1976-02-28,22.0
1976-02-29,19.0
1976-03-01,26.0
1976-03-02,23.0
1976-03-03,44.0
1976-03-04,27.0
1976-03-05,34.0
1976-03-06,23.0
1976-03-07,25.0
1976-03-08,29.0
1976-03-09,33.0
1976-03-10,25.0
1976-03-11,25.0
1976-03-12,35.0
1976-03-13,22.0
1976-03-14,30.0
1976-03-15,29.0
1976-03-16,29.0
1976-03-17,23.0
1976-03-18,28.0
1976-03-19,27.0
1976-03-20,27.0
1976-03-21,27.0
1976-03-22,24.0
1976-03-23,27.0
1976-03-24,30.0
1976-03-25,28.0
1976-03-26,37.0
1976-03-27,35.0
1976-03-28,38.0
1976-03-29,35.0
1976-03-30,35.0
1976-03-31,32.0
1976-04-01,42.0
1976-04-02,37.0
1976-04-03,42.0
1976-04-04,53.0
1976-04-05,69.0
1976-04-06,70.0
1976-04-07,73.0
1976-04-08,69.0
1976-04-09,60.0
1976-04-10,78.0
1976-04-11,91.0
1976-04-12,115.0
1976-04-13,155.0
1976-04-14,132.0
1976-04-15,118.0
1976-04-16,111.0
1976-04-17,98.0
1976-04-18,98.0
1976-04-19,85.0
1976-04-20,80.0
1976-04-21,67.0
1976-04-22,80.0
1976-04-23,83.0
1976-04-24,111.0
1976-04-25,94.0
1976-04-26,100.0
1976-04-27,100.0
1976-04-28,117.0
1976-04-29,151.0
1976-04-30,165.0
1976-05-01,184.0
1976-05-02,158.0
1976-05-03,205.0
1976-05-04,235.0
1976-05-05,243.0
1976-05-06,259.0
1976-05-07,236.0
1976-05-08,229.0
1976-05-09,229.0
1976-05-10,232.0
1976-05-11,232.0
1976-05-12,279.0
1976-05-13,272.0
1976-05-14,248.0
1976-05-15,305.0
1976-05-16,412.0
1976-05-17,462.0
1976-05-18,482.0
1976-05-19,548.0
1976-05-20,548.0
1976-05-21,572.0
1976-05-22,660.0
1976-05-23,541.0
1976-05-24,433.0
1976-05-25,367.0
1976-05-26,353.0
1976-05-27,346.0
1976-05-28,365.0
1976-05-29,419.0
1976-05-30,510.0
1976-05-31,497.0
1976-06-01,475.0
1976-06-02,524.0
1976-06-03,539.0
1976-06-04,625.0
1976-06-05,657.0
1976-06-06,764.0
1976-06-07,732.0
1976-06-08,620.0
1976-06-09,647.0
1976-06-10,678.0
1976-06-11,688.0
1976-06-12,605.0
1976-06-13,487.0
1976-06-14,408.0
1976-06-15,373.0
1976-06-16,337.0
1976-06-17,324.0
1976-06-18,370.0
1976-06-19,325.0
1976-06-20,299.0
1976-06-21,388.0
1976-06-22,367.0
1976-06-23,390.0
1976-06-24,471.0
1976-06-25,349.0
1976-06-26,296.0
1976-06-27,310.0
1976-06-28,343.0
1976-06-29,361.0
1976-06-30,322.0
1976-07-01,305.0
1976-07-02,292.0
1976-07-03,328.0
1976-07-04,247.0
1976-07-05,234.0
1976-07-06,225.0
1976-07-07,207.0
1976-07-08,184.0
1976-07-09,175.0
1976-07-10,184.0
1976-07-11,189.0
1976-07-12,184.0
1976-07-13,195.0
1976-07-14,247.0
1976-07-15,192.0
1976-07-16,168.0
1976-07-17,149.0
1976-07-18,153.0
1976-07-19,177.0
1976-07-20,204.0
1976-07-21,223.0
1976-07-22,182.0
1976-07-23,168.0
1976-07-24,168.0
1976-07-25,139.0
1976-07-26,191.0
1976-07-27,130.0
1976-07-28,158.0
1976-07-29,149.0
1976-07-30,119.0
1976-07-31,117.0
1976-08-01,117.0
1976-08-02,108.0
1976-08-03,147.0
1976-08-04,165.0
1976-08-05,127.0
1976-08-06,95.0
1976-08-07,67.0
1976-08-08,91.0
1976-08-09,128.0
1976-08-10,90.0
1976-08-11,96.0
1976-08-12,129.0
1976-08-13,152.0
1976-08-14,126.0
1976-08-15,115.0
1976-08-16,86.0
1976-08-17,87.0
1976-08-18,77.0
1976-08-19,96.0
1976-08-20,83.0
1976-08-21,70.0
1976-08-22,89.0
1976-08-23,66.0
1976-08-24,66.0
1976-08-25,62.0
1976-08-26,57.0
1976-08-27,47.0
1976-08-28,66.0
1976-08-29,85.0
1976-08-30,53.0
1976-08-31,48.0
1976-09-01,66.0
1976-09-02,51.0
1976-09-03,36.0
1976-09-04,42.0
1976-09-05,52.0
1976-09-06,42.0
1976-09-07,42.0
1976-09-08,70.0
1976-09-09,56.0
1976-09-10,56.0
1976-09-11,47.0
1976-09-12,52.0
1976-09-13,47.0
1976-09-14,43.0
1976-09-15,47.0
1976-09-16,75.0
1976-09-17,47.0
1976-09-18,54.0
1976-09-19,49.0
1976-09-20,49.0
1976-09-21,40.0
1976-09-22,36.0
1976-09-23,54.0
1976-09-24,58.0
1976-09-25,54.0
1976-09-26,85.0
1976-09-27,99.0
1976-09-28,90.0
1976-09-29,81.0
1976-09-30,72.0
1976-10-01,68.0
1976-10-02,62.0
1976-10-03,59.0
1976-10-04,72.0
1976-10-05,63.0
1976-10-06,66.0
1976-10-07,59.0
1976-10-08,59.0
1976-10-09,61.0
1976-10-10,81.0
1976-10-11,68.0
1976-10-12,72.0
1976-10-13,64.0
1976-10-14,59.0
1976-10-15,64.0
1976-10-16,33.0
1976-10-17,41.0
1976-10-18,55.0
1976-10-19,51.0
1976-10-20,50.0
1976-10-21,46.0
1976-10-22,64.0
1976-10-23,64.0
1976-10-24,65.0
1976-10-25,53.0
1976-10-26,46.0
1976-10-27,47.0
1976-10-28,43.0
1976-10-29,43.0
1976-10-30,44.0
1976-10-31,43.0
1976-11-01,53.0
1976-11-02,48.0
1976-11-03,44.0
1976-11-04,57.0
1976-11-05,44.0
1976-11-06,53.0
1976-11-07,38.0
1976-11-08,51.0
1976-11-09,42.0
1976-11-10,33.0
1976-11-11,42.0
1976-11-12,34.0
1976-11-13,33.0
1976-11-14,38.0
1976-11-15,51.0
1976-11-16,38.0
1976-11-17,40.0
1976-11-18,35.0
1976-11-19,40.0
1976-11-20,40.0
1976-11-21,40.0
1976-11-22,32.0
1976-11-23,23.0
1976-11-24,32.0
1976-11-25,36.0
1976-11-26,24.0
1976-11-27,36.0
1976-11-28,15.0
1976-11-29,11.0
1976-11-30,39.0
1976-12-01,27.0
1976-12-02,33.0
1976-12-03,25.0
1976-12-04,34.0
1976-12-05,34.0
1976-12-06,34.0
1976-12-07,34.0
1976-12-08,30.0
1976-12-09,38.0
1976-12-10,31.0
1976-12-11,33.0
1976-12-12,38.0
1976-12-13,37.0
1976-12-14,46.0
1976-12-15,27.0
1976-12-16,24.0
1976-12-17,28.0
1976-12-18,33.0
1976-12-19,33.0
1976-12-20,33.0
1976-12-21,28.0
1976-12-22,29.0
1976-12-23,30.0
1976-12-24,13.0
1976-12-25,29.0
1976-12-26,25.0
1976-12-27,33.0
1976-12-28,21.0
1976-12-29,33.0
1976-12-30,34.0
1976-12-31,26.0
1977-01-01,34.0
1977-01-02,30.0
1977-01-03,31.0
1977-01-04,26.0
1977-01-05,38.0
1977-01-06,26.0
1977-01-07,35.0
1977-01-08,23.0
1977-01-09,35.0
1977-01-10,39.0
1977-01-11,19.0
1977-01-12,31.0
1977-01-13,28.0
1977-01-14,31.0
1977-01-15,27.0
1977-01-16,27.0
1977-01-17,31.0
1977-01-18,28.0
1977-01-19,28.0
1977-01-20,32.0
1977-01-21,28.0
1977-01-22,36.0
1977-01-23,32.0
1977-01-24,37.0
1977-01-25,29.0
1977-01-26,24.0
1977-01-27,29.0
1977-01-28,33.0
1977-01-29,26.0
1977-01-30,28.0
1977-01-31,24.0
1977-02-01,25.0
1977-02-02,28.0
1977-02-03,35.0
1977-02-04,26.0
1977-02-05,26.0
1977-02-06,21.0
1977-02-07,26.0
1977-02-08,21.0
1977-02-09,29.0
1977-02-10,21.0
1977-02-11,26.0
1977-02-12,22.0
1977-02-13,22.0
1977-02-14,21.0
1977-02-15,22.0
1977-02-16,26.0
1977-02-17,25.0
1977-02-18,22.0
1977-02-19,25.0
1977-02-20,25.0
1977-02-21,25.0
1977-02-22,22.0
1977-02-23,40.0
1977-02-24,25.0
1977-02-25,29.0
1977-02-26,29.0
1977-02-27,25.0
1977-02-28,29.0
1977-03-01,29.0
1977-03-02,25.0
1977-03-03,29.0
1977-03-04,34.0
1977-03-05,26.0
1977-03-06,23.0
1977-03-07,22.0
1977-03-08,26.0
1977-03-09,26.0
1977-03-10,22.0
1977-03-11,34.0
1977-03-12,26.0
1977-03-13,27.0
1977-03-14,26.0
1977-03-15,30.0
1977-03-16,26.0
1977-03-17,26.0
1977-03-18,30.0
1977-03-19,34.0
1977-03-20,26.0
1977-03-21,26.0
1977-03-22,26.0
1977-03-23,26.0
1977-03-24,28.0
1977-03-25,27.0
1977-03-26,31.0
1977-03-27,28.0
1977-03-28,31.0
1977-03-29,32.0
1977-03-30,28.0
1977-03-31,24.0
1977-04-01,20.0
1977-04-02,33.0
1977-04-03,25.0
1977-04-04,21.0
1977-04-05,29.0
1977-04-06,26.0
1977-04-07,29.0
1977-04-08,37.0
1977-04-09,37.0
1977-04-10,41.0
1977-04-11,56.0
1977-04-12,83.0
1977-04-13,76.0
1977-04-14,64.0
1977-04-15,56.0
1977-04-16,61.0
1977-04-17,60.0
1977-04-18,72.0
1977-04-19,91.0
1977-04-20,110.0
1977-04-21,87.0
1977-04-22,68.0
1977-04-23,80.0
1977-04-24,99.0
1977-04-25,115.0
1977-04-26,135.0
1977-04-27,138.0
1977-04-28,151.0
1977-04-29,161.0
1977-04-30,149.0
1977-05-01,145.0
1977-05-02,172.0
1977-05-03,186.0
1977-05-04,237.0
1977-05-05,218.0
1977-05-06,172.0
1977-05-07,192.0
1977-05-08,255.0
1977-05-09,287.0
1977-05-10,312.0
1977-05-11,305.0
1977-05-12,242.0
1977-05-13,225.0
1977-05-14,225.0
1977-05-15,291.0
1977-05-16,174.0
1977-05-17,177.0
1977-05-18,172.0
1977-05-19,175.0
1977-05-20,195.0
1977-05-21,183.0
1977-05-22,143.0
1977-05-23,142.0
1977-05-24,208.0
1977-05-25,287.0
1977-05-26,206.0
1977-05-27,191.0
1977-05-28,175.0
1977-05-29,201.0
1977-05-30,208.0
1977-05-31,299.0
1977-06-01,323.0
1977-06-02,398.0
1977-06-03,391.0
1977-06-04,351.0
1977-06-05,355.0
1977-06-06,370.0
1977-06-07,437.0
1977-06-08,381.0
1977-06-09,397.0
1977-06-10,367.0
1977-06-11,298.0
1977-06-12,264.0
1977-06-13,225.0
1977-06-14,295.0
1977-06-15,261.0
1977-06-16,265.0
1977-06-17,261.0
1977-06-18,259.0
1977-06-19,232.0
1977-06-20,213.0
1977-06-21,202.0
1977-06-22,188.0
1977-06-23,163.0
1977-06-24,159.0
1977-06-25,153.0
1977-06-26,153.0
1977-06-27,153.0
1977-06-28,145.0
1977-06-29,144.0
1977-06-30,126.0
1977-07-01,117.0
1977-07-02,104.0
1977-07-03,101.0
1977-07-04,101.0
1977-07-05,100.0
1977-07-06,106.0
1977-07-07,106.0
1977-07-08,100.0
1977-07-09,70.0
1977-07-10,67.0
1977-07-11,57.0
1977-07-12,54.0
1977-07-13,66.0
1977-07-14,60.0
1977-07-15,66.0
1977-07-16,58.0
1977-07-17,53.0
1977-07-18,49.0
1977-07-19,48.0
1977-07-20,32.0
1977-07-21,67.0
1977-07-22,73.0
1977-07-23,125.0
1977-07-24,98.0
1977-07-25,151.0
1977-07-26,233.0
1977-07-27,124.0
1977-07-28,110.0
1977-07-29,99.0
1977-07-30,77.0
1977-07-31,75.0
1977-08-01,66.0
1977-08-02,51.0
1977-08-03,52.0
1977-08-04,42.0
1977-08-05,45.0
1977-08-06,63.0
1977-08-07,58.0
1977-08-08,45.0
1977-08-09,46.0
1977-08-10,44.0
1977-08-11,42.0
1977-08-12,42.0
1977-08-13,34.0
1977-08-14,33.0
1977-08-15,38.0
1977-08-16,37.0
1977-08-17,47.0
1977-08-18,49.0
1977-08-19,86.0
1977-08-20,77.0
1977-08-21,73.0
1977-08-22,57.0
1977-08-23,58.0
1977-08-24,67.0
1977-08-25,47.0
1977-08-26,54.0
1977-08-27,44.0
1977-08-28,54.0
1977-08-29,49.0
1977-08-30,44.0
1977-08-31,44.0
1977-09-01,13.0
1977-09-02,36.0
1977-09-03,31.0
1977-09-04,31.0
1977-09-05,36.0
1977-09-06,35.0
1977-09-07,31.0
1977-09-08,31.0
1977-09-09,18.0
1977-09-10,22.0
1977-09-11,27.0
1977-09-12,49.0
1977-09-13,67.0
1977-09-14,62.0
1977-09-15,39.0
1977-09-16,47.0
1977-09-17,44.0
1977-09-18,35.0
1977-09-19,40.0
1977-09-20,31.0
1977-09-21,43.0
1977-09-22,35.0
1977-09-23,33.0
1977-09-24,56.0
1977-09-25,52.0
1977-09-26,51.0
1977-09-27,47.0
1977-09-28,47.0
1977-09-29,42.0
1977-09-30,38.0
1977-10-01,40.0
1977-10-02,41.0
1977-10-03,50.0
1977-10-04,53.0
1977-10-05,42.0
1977-10-06,56.0
1977-10-07,56.0
1977-10-08,112.0
1977-10-09,70.0
1977-10-10,57.0
1977-10-11,56.0
1977-10-12,44.0
1977-10-13,46.0
1977-10-14,38.0
1977-10-15,74.0
1977-10-16,53.0
1977-10-17,53.0
1977-10-18,50.0
1977-10-19,44.0
1977-10-20,47.0
1977-10-21,44.0
1977-10-22,52.0
1977-10-23,42.0
1977-10-24,47.0
1977-10-25,47.0
1977-10-26,47.0
1977-10-27,51.0
1977-10-28,42.0
1977-10-29,42.0
1977-10-30,39.0
1977-10-31,51.0
1977-11-01,47.0
1977-11-02,38.0
1977-11-03,38.0
1977-11-04,47.0
1977-11-05,42.0
1977-11-06,42.0
1977-11-07,39.0
1977-11-08,38.0
1977-11-09,25.0
1977-11-10,29.0
1977-11-11,39.0
1977-11-12,39.0
1977-11-13,43.0
1977-11-14,42.0
1977-11-15,35.0
1977-11-16,30.0
1977-11-17,29.0
1977-11-18,37.0
1977-11-19,41.0
1977-11-20,55.0
1977-11-21,24.0
1977-11-22,33.0
1977-11-23,46.0
1977-11-24,46.0
1977-11-25,46.0
1977-11-26,42.0
1977-11-27,38.0
1977-11-28,37.0
1977-11-29,46.0
1977-11-30,41.0
1977-12-01,33.0
1977-12-02,24.0
1977-12-03,68.0
1977-12-04,46.0
1977-12-05,50.0
1977-12-06,46.0
1977-12-07,20.0
1977-12-08,37.0
1977-12-09,33.0
1977-12-10,41.0
1977-12-11,33.0
1977-12-12,33.0
1977-12-13,38.0
1977-12-14,37.0
1977-12-15,46.0
1977-12-16,42.0
1977-12-17,30.0
1977-12-18,37.0
1977-12-19,46.0
1977-12-20,37.0
1977-12-21,46.0
1977-12-22,28.0
1977-12-23,38.0
1977-12-24,41.0
1977-12-25,41.0
1977-12-26,42.0
1977-12-27,30.0
1977-12-28,37.0
1977-12-29,37.0
1977-12-30,42.0
1977-12-31,37.0
1978-01-01,33.0
1978-01-02,37.0
1978-01-03,33.0
1978-01-04,33.0
1978-01-05,43.0
1978-01-06,46.0
1978-01-07,43.0
1978-01-08,39.0
1978-01-09,35.0
1978-01-10,26.0
1978-01-11,25.0
1978-01-12,44.0
1978-01-13,39.0
1978-01-14,27.0
1978-01-15,39.0
1978-01-16,44.0
1978-01-17,42.0
1978-01-18,33.0
1978-01-19,29.0
1978-01-20,29.0
1978-01-21,29.0
1978-01-22,37.0
1978-01-23,29.0
1978-01-24,24.0
1978-01-25,29.0
1978-01-26,34.0
1978-01-27,42.0
1978-01-28,46.0
1978-01-29,24.0
1978-01-30,29.0
1978-01-31,25.0
1978-02-01,38.0
1978-02-02,22.0
1978-02-03,22.0
1978-02-04,17.0
1978-02-05,22.0
1978-02-06,22.0
1978-02-07,48.0
1978-02-08,21.0
1978-02-09,27.0
1978-02-10,26.0
1978-02-11,27.0
1978-02-12,32.0
1978-02-13,23.0
1978-02-14,28.0
1978-02-15,20.0
1978-02-16,24.0
1978-02-17,20.0
1978-02-18,21.0
1978-02-19,21.0
1978-02-20,25.0
1978-02-21,29.0
1978-02-22,35.0
1978-02-23,35.0
1978-02-24,43.0
1978-02-25,31.0
1978-02-26,36.0
1978-02-27,48.0
1978-02-28,44.0
1978-03-01,45.0
1978-03-02,53.0
1978-03-03,53.0
1978-03-04,54.0
1978-03-05,43.0
1978-03-06,48.0
1978-03-07,46.0
1978-03-08,50.0
1978-03-09,56.0
1978-03-10,55.0
1978-03-11,53.0
1978-03-12,53.0
1978-03-13,70.0
1978-03-14,34.0
1978-03-15,66.0
1978-03-16,51.0
1978-03-17,55.0
1978-03-18,56.0
1978-03-19,56.0
1978-03-20,60.0
1978-03-21,65.0
1978-03-22,69.0
1978-03-23,66.0
1978-03-24,74.0
1978-03-25,74.0
1978-03-26,67.0
1978-03-27,52.0
1978-03-28,75.0
1978-03-29,83.0
1978-03-30,56.0
1978-03-31,89.0
1978-04-01,101.0
1978-04-02,138.0
1978-04-03,94.0
1978-04-04,101.0
1978-04-05,89.0
1978-04-06,91.0
1978-04-07,74.0
1978-04-08,96.0
1978-04-09,136.0
1978-04-10,166.0
1978-04-11,111.0
1978-04-12,105.0
1978-04-13,124.0
1978-04-14,121.0
1978-04-15,110.0
1978-04-16,117.0
1978-04-17,132.0
1978-04-18,132.0
1978-04-19,110.0
1978-04-20,100.0
1978-04-21,99.0
1978-04-22,119.0
1978-04-23,100.0
1978-04-24,108.0
1978-04-25,117.0
1978-04-26,156.0
1978-04-27,172.0
1978-04-28,237.0
1978-04-29,190.0
1978-04-30,172.0
1978-05-01,172.0
1978-05-02,162.0
1978-05-03,166.0
1978-05-04,180.0
1978-05-05,177.0
1978-05-06,156.0
1978-05-07,143.0
1978-05-08,134.0
1978-05-09,139.0